K4PAD Weather Reports


time (UTC)temp
F
wind
direction
speed
knots
gust
knots
rain 1hr
in
rain 24hr
in
rain mn
in
humidity
%
barometer
mb
20260510123012 72 34 0.0 0.9 0.00 0.00 0.00 99 1017.3
20260510122509 71 7 0.0 0.9 0.00 0.00 0.00 99 1017.0
20260510122004 71 48 0.0 0.0 0.00 0.00 0.00 99 1017.1
20260510121502 71 45 0.0 0.0 0.00 0.00 0.00 99 1017.2
20260510120959 71 37 0.0 0.0 0.00 0.00 0.00 99 1017.2
20260510120456 71 27 0.0 0.0 0.00 0.00 0.00 99 1016.8
20260510115952 71 3 0.9 0.9 0.00 0.00 0.00 99 1017.0
20260510115449 71 43 0.0 0.0 0.00 0.00 0.00 99 1017.0
20260510114945 71 46 0.0 0.0 0.00 0.00 0.00 99 1016.9
20260510114442 71 13 0.0 0.0 0.00 0.00 0.00 99 1016.5
20260510113938 71 48 0.0 0.0 0.00 0.00 0.00 99 1016.6
20260510113433 70 51 0.0 0.0 0.00 0.00 0.00 99 1016.6
20260510112931 70 46 0.0 0.0 0.00 0.00 0.00 99 1016.5
20260510112428 70 30 0.0 0.0 0.00 0.00 0.00 99 1016.5
20260510111924 70 41 0.0 0.0 0.00 0.00 0.00 99 1016.5
20260510111420 70 43 0.0 0.0 0.00 0.00 0.00 99 1016.3
20260510110916 70 43 0.0 0.0 0.00 0.00 0.00 99 1016.5
20260510110413 70 22 0.0 0.0 0.00 0.00 0.00 99 1016.1
20260510105908 70 57 0.0 0.0 0.00 0.00 0.00 99 1015.9
20260510105403 70 57 0.0 0.0 0.00 0.00 0.00 99 1015.9
20260510104858 70 58 0.0 0.0 0.00 0.00 0.00 99 1015.7
20260510104355 70 50 0.0 0.0 0.00 0.00 0.00 99 1015.8
20260510103852 70 47 0.0 0.0 0.00 0.00 0.00 99 1015.8
20260510103350 70 47 0.0 0.0 0.00 0.00 0.00 99 1015.7
20260510102845 70 40 0.0 0.0 0.00 0.00 0.00 99 1015.8
20260510102341 70 31 0.0 0.0 0.00 0.00 0.00 99 1015.5
20260510101838 70 30 0.0 0.0 0.00 0.00 0.00 99 1015.6
20260510101337 70 56 0.0 0.0 0.00 0.00 0.00 99 1015.5
20260510100832 70 50 0.0 0.0 0.00 0.00 0.00 99 1015.6
20260510100331 70 55 0.0 0.0 0.00 0.00 0.00 99 1015.5
20260510095826 70 54 0.0 0.0 0.00 0.00 0.00 99 1015.6
20260510095321 70 42 0.0 0.0 0.00 0.00 0.00 99 1015.7
20260510094820 70 29 0.0 0.0 0.00 0.00 0.00 99 1015.4
20260510094315 70 55 0.0 0.0 0.00 0.00 0.00 99 1015.2
20260510093812 70 64 0.0 0.0 0.00 0.00 0.00 99 1015.1
20260510093308 71 70 0.0 0.0 0.00 0.00 0.00 99 1015.0
20260510092805 70 68 0.0 0.0 0.00 0.00 0.00 99 1015.1
20260510092301 71 68 0.0 0.0 0.00 0.00 0.00 99 1015.2
20260510091756 71 65 0.0 0.0 0.00 0.00 0.00 99 1015.0
20260510091254 71 64 0.0 0.0 0.00 0.00 0.00 99 1014.9
20260510090750 71 65 0.0 0.0 0.00 0.00 0.00 99 1014.7
20260510090247 71 66 0.0 0.0 0.00 0.00 0.00 99 1014.7
20260510085743 71 66 0.0 0.0 0.00 0.00 0.00 99 1014.9
20260510085237 71 68 0.0 0.0 0.00 0.00 0.00 99 1014.9
20260510084734 71 70 0.0 0.0 0.00 0.00 0.00 99 1014.8
20260510084231 71 39 0.0 0.0 0.00 0.00 0.00 99 1014.8
20260510083727 71 60 0.0 0.0 0.00 0.00 0.00 99 1014.4
20260510083224 71 56 0.0 0.0 0.00 0.00 0.00 99 1014.5
20260510082720 71 57 0.0 0.0 0.00 0.00 0.00 99 1014.3
20260510082217 71 92 0.0 0.0 0.00 0.00 0.00 99 1014.4
20260510081710 71 58 0.0 0.0 0.00 0.00 0.00 99 1014.5
20260510081207 71 48 0.0 0.0 0.00 0.00 0.00 99 1014.4
20260510080706 71 48 0.0 0.0 0.00 0.00 0.00 99 1014.4
20260510080203 71 61 0.0 0.0 0.00 0.00 0.00 99 1014.6
20260510075700 71 70 0.0 0.0 0.00 0.00 0.00 99 1014.4
20260510075158 71 59 0.0 0.0 0.00 0.00 0.00 99 1014.7
20260510074655 71 58 0.0 0.0 0.00 0.00 0.00 99 1014.6
20260510074150 71 49 0.0 0.0 0.00 0.00 0.00 99 1014.7
20260510073647 71 50 0.0 0.0 0.00 0.00 0.00 99 1014.6
20260510073143 71 75 0.0 0.0 0.00 0.00 0.00 99 1014.7
20260510072639 71 93 0.0 0.0 0.00 0.00 0.00 99 1014.5
20260510072136 71 173 0.0 0.0 0.00 0.00 0.00 99 1014.7
20260510071631 71 78 0.0 0.0 0.00 0.00 0.00 99 1014.4
20260510071130 71 95 0.0 0.0 0.00 0.00 0.00 99 1014.4
20260510070627 71 124 0.0 0.0 0.00 0.00 0.00 99 1014.4
20260510070124 71 119 0.0 0.0 0.00 0.00 0.00 99 1014.5
20260510065620 71 93 0.0 0.0 0.00 0.00 0.00 99 1014.3
20260510065116 71 93 0.0 0.0 0.00 0.00 0.00 99 1014.4
20260510064613 71 93 0.0 0.0 0.00 0.00 0.00 99 1014.5
20260510064110 71 99 0.0 0.0 0.00 0.00 0.00 99 1014.5
20260510063607 71 89 0.0 0.0 0.00 0.00 0.00 99 1014.6
20260510063104 71 198 0.9 0.9 0.00 0.00 0.00 99 1014.7
20260510062559 71 101 0.0 0.0 0.00 0.00 0.00 99 1014.9
20260510062054 71 100 0.0 0.0 0.00 0.00 0.00 99 1014.7
20260510061551 71 95 0.0 0.0 0.00 0.00 0.00 99 1014.8
20260510061048 71 74 0.0 0.0 0.00 0.00 0.00 99 1014.6
20260510060544 71 79 0.0 0.0 0.00 0.00 0.00 99 1014.7
20260510060040 71 78 0.0 0.0 0.00 0.00 0.00 99 1014.8
20260510055537 71 76 0.0 0.0 0.00 0.00 0.00 99 1015.1
20260510055035 71 85 0.0 0.0 0.00 0.00 0.00 98 1015.2
20260510054531 71 68 0.0 0.0 0.00 0.00 0.00 98 1015.2
20260510054026 71 212 0.0 0.9 0.00 0.00 0.00 98 1015.1
20260510053521 71 77 0.0 0.0 0.00 0.00 0.00 98 1015.1
20260510053018 71 60 0.0 0.0 0.00 0.00 0.00 98 1015.3
20260510052514 71 76 0.0 0.0 0.00 0.00 0.00 98 1015.3
20260510052010 71 76 0.0 0.0 0.00 0.00 0.00 98 1015.5
20260510051505 71 77 0.0 0.0 0.00 0.00 0.00 99 1015.3
20260510051002 70 81 0.0 0.0 0.00 0.00 0.00 99 1015.5
20260510050500 70 67 0.0 0.0 0.00 0.00 0.00 98 1015.6
20260510045956 70 62 0.0 0.0 0.00 0.00 0.00 98 1016.0
20260510045454 69 82 0.0 0.0 0.00 0.00 0.00 98 1016.0
20260510044950 69 76 0.0 0.0 0.00 0.00 0.00 98 1015.9
20260510044447 69 75 0.0 0.0 0.00 0.00 0.00 98 1016.2
20260510043944 69 75 0.0 0.0 0.00 0.00 0.00 98 1016.2
20260510043439 69 78 0.0 0.0 0.00 0.00 0.00 98 1016.0
20260510042938 69 73 0.0 0.0 0.00 0.00 0.00 98 1015.8
20260510042434 69 73 0.0 0.0 0.00 0.00 0.00 98 1015.9
20260510041929 69 71 0.0 0.0 0.00 0.00 0.00 98 1015.8
20260510041427 69 76 0.0 0.0 0.00 0.00 0.00 98 1015.9
20260510040925 70 76 0.0 0.0 0.00 0.00 0.00 98 1016.0
20260510040421 70 77 0.0 0.0 0.00 0.00 0.00 98 1016.0
20260510035916 70 77 0.0 0.0 0.00 0.11 0.11 98 1015.9
20260510035413 70 72 0.0 0.0 0.00 0.11 0.11 98 1015.9
20260510034908 70 72 0.0 0.0 0.00 0.11 0.11 98 1016.1
20260510034407 70 73 0.0 0.0 0.00 0.11 0.11 98 1015.8
20260510033908 70 65 0.0 0.0 0.00 0.11 0.11 98 1016.1
20260510033404 70 71 0.0 0.0 0.00 0.11 0.11 98 1016.3
20260510032901 70 68 0.0 0.0 0.00 0.11 0.11 98 1016.2
20260510032358 70 79 0.0 0.0 0.00 0.11 0.11 98 1016.1
20260510031853 70 79 0.0 0.0 0.00 0.11 0.11 98 1016.1
20260510031349 70 77 0.0 0.0 0.00 0.11 0.11 98 1016.0
20260510030849 70 76 0.0 0.0 0.00 0.11 0.11 98 1016.1
20260510030345 70 83 0.0 0.0 0.00 0.11 0.11 98 1016.0
20260510025843 70 79 0.0 0.0 0.00 0.11 0.11 98 1015.9
20260510025340 70 76 0.0 0.0 0.00 0.11 0.11 98 1016.0
20260510024837 70 76 0.0 0.0 0.00 0.11 0.11 98 1015.9
20260510024334 70 81 0.0 0.0 0.00 0.11 0.11 98 1015.6
20260510023830 70 82 0.0 0.0 0.00 0.11 0.11 98 1015.8
20260510023326 70 82 0.0 0.0 0.00 0.11 0.11 98 1015.6
20260510022824 70 116 0.0 0.0 0.00 0.11 0.11 98 1015.9
20260510022323 70 201 0.9 0.9 0.00 0.11 0.11 97 1015.5
20260510021822 70 110 0.0 0.0 0.00 0.11 0.11 97 1015.1
20260510021320 70 163 0.0 0.0 0.00 0.11 0.11 97 1015.3
20260510020816 70 17 0.0 0.0 0.00 0.11 0.11 97 1015.2
20260510020311 70 74 0.0 0.0 0.00 0.11 0.11 97 1015.0
20260510015807 70 60 0.0 0.0 0.00 0.11 0.11 97 1015.0
20260510015306 70 105 0.0 0.0 0.00 0.11 0.11 97 1014.9
20260510014758 70 92 0.0 0.0 0.00 0.11 0.11 97 1015.0
20260510014256 70 92 0.0 0.0 0.00 0.11 0.11 97 1014.7
20260510013752 70 106 0.0 0.0 0.00 0.11 0.11 97 1014.5
20260510013248 70 107 0.0 0.0 0.00 0.11 0.11 97 1014.3
20260510012743 71 59 0.0 0.0 0.00 0.11 0.11 97 1014.3
20260510012238 71 86 0.0 0.0 0.00 0.11 0.11 97 1014.5
20260510011737 71 52 0.0 0.0 0.07 0.11 0.11 97 1014.4
20260510011233 70 167 0.0 0.9 0.07 0.11 0.11 97 1014.5
20260510010730 71 75 0.0 0.0 0.00 0.10 0.10 97 1014.6
20260510010226 71 52 0.0 0.0 0.00 0.10 0.10 97 1014.5
20260510005723 71 147 0.0 0.0 0.00 0.10 0.10 96 1014.6
20260510005220 70 75 0.0 0.0 0.00 0.10 0.10 96 1014.5
20260510004718 70 107 0.0 0.0 0.00 0.10 0.10 96 1014.7
20260510004216 71 87 0.0 0.0 0.00 0.10 0.10 96 1014.6
20260510003713 71 87 0.0 0.0 0.00 0.10 0.10 96 1014.5
20260510003209 71 76 0.0 0.0 0.00 0.10 0.10 96 1014.4
20260510002708 71 45 0.0 0.0 0.00 0.10 0.10 96 1014.4
20260510002205 71 63 0.9 0.9 0.00 0.10 0.10 96 1014.6
20260510001702 71 234 0.9 0.9 0.00 0.10 0.10 96 1015.0
20260510001202 71 9 0.0 0.0 0.00 0.10 0.10 96 1014.6
20260510000702 71 25 0.0 0.0 0.00 0.10 0.10 95 1014.8
20260510000159 71 308 0.0 0.9 0.00 0.10 0.10 95 1015.2
20260509235656 71 169 0.0 0.9 0.00 0.10 0.10 95 1015.0
20260509235152 71 255 0.0 0.0 0.00 0.10 0.10 95 1015.1
20260509234648 71 235 0.9 1.7 0.00 0.10 0.10 95 1015.2
20260509234146 71 160 0.0 0.0 0.07 0.10 0.10 95 1015.3
20260509233644 71 24 0.0 0.0 0.07 0.10 0.10 94 1015.3
20260509233141 71 192 0.9 0.9 0.00 0.09 0.09 94 1015.1
20260509232637 71 181 0.9 0.9 0.00 0.09 0.09 94 1015.4
20260509232134 71 298 0.0 0.9 0.00 0.09 0.09 94 1015.3
20260509231630 71 167 0.0 0.9 0.05 0.09 0.09 94 1015.2
20260509231128 72 330 0.0 0.9 0.05 0.09 0.09 93 1015.3
20260509230625 72 53 0.0 0.0 0.00 0.08 0.08 93 1015.2
20260509230122 72 30 0.0 0.0 0.00 0.08 0.08 93 1015.0
20260509225618 72 32 0.0 0.0 0.00 0.08 0.08 93 1015.0
20260509225113 71 56 0.0 0.0 0.00 0.08 0.08 93 1014.9
20260509224608 71 85 0.0 0.0 0.00 0.08 0.08 93 1014.6
20260509224106 71 90 0.9 0.9 0.00 0.08 0.08 93 1014.7
20260509223603 72 83 0.0 0.9 0.00 0.08 0.08 93 1015.0
20260509223100 72 71 0.0 0.0 0.00 0.08 0.08 93 1014.8
20260509222556 72 43 0.9 0.9 0.00 0.08 0.08 93 1014.9
20260509222052 72 46 0.0 0.9 0.00 0.08 0.08 93 1014.8
20260509221548 72 55 0.0 0.0 0.00 0.08 0.08 93 1014.8
20260509221044 72 332 0.0 0.9 0.00 0.08 0.08 93 1014.9
20260509220540 72 18 0.9 0.9 0.00 0.08 0.08 93 1014.7
20260509220037 72 16 2.6 2.6 0.00 0.08 0.08 93 1014.8
20260509215532 72 29 0.9 0.9 0.00 0.08 0.08 93 1014.7
20260509215030 72 24 0.9 0.9 0.00 0.08 0.08 93 1014.9
20260509214527 72 50 0.9 1.7 0.00 0.08 0.08 93 1014.9
20260509214024 72 75 0.9 0.9 0.00 0.08 0.08 94 1014.7
20260509213520 72 21 2.6 2.6 0.00 0.08 0.08 94 1014.5
20260509213017 73 35 3.5 4.3 0.00 0.08 0.08 94 1014.4
20260509212514 73 157 0.9 0.9 0.00 0.08 0.08 94 1014.5
20260509212011 73 47 0.0 0.9 0.00 0.08 0.08 94 1014.3
20260509211506 73 327 1.7 2.6 0.00 0.08 0.08 94 1014.4
20260509211003 73 80 1.7 2.6 0.00 0.08 0.08 94 1014.5
20260509210500 73 205 0.9 0.9 0.00 0.08 0.08 93 1014.5
20260509205955 73 63 0.0 0.9 0.00 0.08 0.08 93 1014.3
20260509205450 73 327 1.7 1.7 0.00 0.08 0.08 93 1014.2
20260509204946 73 67 0.9 0.9 0.00 0.08 0.08 93 1014.0
20260509204443 73 100 0.0 0.0 0.00 0.08 0.08 93 1014.3
20260509203939 73 18 1.7 1.7 0.00 0.08 0.08 92 1014.5
20260509203435 73 10 1.7 1.7 0.00 0.08 0.08 93 1014.6
20260509202933 73 34 0.0 0.0 0.00 0.08 0.08 92 1014.6
20260509202429 73 331 1.7 2.6 0.00 0.08 0.08 92 1014.5
20260509201924 74 240 2.6 2.6 0.00 0.08 0.08 92 1014.6
20260509201419 74 178 2.6 2.6 0.00 0.08 0.08 93 1014.5
20260509200917 74 2 2.6 2.6 0.00 0.08 0.08 93 1014.5
20260509200416 75 247 3.5 5.2 0.00 0.08 0.08 93 1014.3
20260509195914 76 207 2.6 2.6 0.19 0.08 0.08 93 1014.4
20260509195409 75 47 0.0 0.9 0.19 0.08 0.08 93 1014.2
20260509194908 76 225 0.0 0.9 0.00 0.05 0.05 92 1014.3
20260509194405 76 337 1.7 2.6 0.00 0.05 0.05 92 1014.2
20260509193901 75 184 0.0 0.9 0.00 0.05 0.05 93 1014.3
20260509193355 75 116 0.0 0.0 0.00 0.05 0.05 92 1014.3
20260509192852 75 175 0.0 0.0 0.05 0.05 0.05 92 1014.4
20260509192348 75 209 0.0 0.9 0.05 0.05 0.05 91 1014.5
20260509191843 75 202 0.9 1.7 0.00 0.04 0.04 91 1014.4
20260509191339 75 195 1.7 1.7 0.00 0.04 0.04 91 1014.5
20260509190835 75 209 1.7 1.7 0.00 0.04 0.04 90 1014.5
20260509190332 76 231 0.9 0.9 0.07 0.04 0.04 90 1014.4
20260509185830 76 234 4.3 5.2 0.12 0.04 0.04 91 1014.4
20260509185321 76 203 0.0 0.9 0.05 0.03 0.03 90 1014.3
20260509184819 76 189 0.9 0.9 0.00 0.02 0.02 89 1014.4
20260509184315 77 157 0.9 0.9 0.07 0.02 0.02 87 1014.4
20260509183811 78 126 0.9 0.9 0.07 0.02 0.02 84 1014.5
20260509183307 79 167 0.9 0.9 0.00 0.01 0.01 80 1014.4
20260509182802 80 303 1.7 2.6 0.00 0.01 0.01 76 1014.3
20260509182300 82 209 1.7 2.6 0.00 0.01 0.01 72 1014.4
20260509181757 82 32 0.0 0.9 0.00 0.01 0.01 72 1014.3
20260509181255 82 3 0.9 0.9 0.00 0.01 0.01 72 1014.4
20260509180752 82 134 0.9 1.7 0.00 0.01 0.01 72 1014.4
20260509180248 82 269 2.6 2.6 0.00 0.01 0.01 71 1014.4
20260509175744 82 235 4.3 5.2 0.00 0.01 0.01 71 1014.6
20260509175241 82 179 0.9 0.9 0.00 0.01 0.01 72 1014.7
20260509174737 82 154 0.0 0.9 0.00 0.01 0.01 72 1014.5
20260509174233 82 223 0.9 0.9 0.00 0.01 0.01 71 1014.7
20260509173729 82 85 0.9 0.9 0.00 0.01 0.01 72 1014.5
20260509173224 82 167 0.9 0.9 0.00 0.01 0.01 73 1014.8
20260509172721 82 193 1.7 1.7 0.00 0.01 0.01 72 1014.8
20260509172217 82 179 0.9 0.9 0.00 0.01 0.01 73 1014.8
20260509171712 81 186 2.6 4.3 0.00 0.01 0.01 73 1014.7
20260509171209 82 284 2.6 2.6 0.00 0.01 0.01 72 1014.7
20260509170706 82 198 0.9 0.9 0.00 0.01 0.01 73 1014.7
20260509170202 81 221 0.0 0.9 0.00 0.01 0.01 75 1014.9
20260509165700 81 46 0.9 0.9 0.00 0.01 0.01 74 1014.9
20260509165156 81 257 0.9 0.9 0.00 0.01 0.01 75 1014.7
20260509164652 80 59 0.0 0.0 0.00 0.01 0.01 77 1014.7
20260509164148 80 217 1.7 1.7 0.00 0.01 0.01 77 1014.8
20260509163646 79 41 0.0 0.0 0.00 0.01 0.01 78 1014.9
20260509163141 79 170 0.9 0.9 0.00 0.01 0.01 78 1015.0
20260509162640 79 76 0.9 0.9 0.00 0.01 0.01 78 1014.9
20260509162135 79 67 0.0 0.9 0.00 0.01 0.01 80 1015.2
20260509161632 79 41 0.0 0.0 0.00 0.01 0.01 79 1015.2
20260509161127 78 30 0.0 0.9 0.00 0.01 0.01 79 1015.3
20260509160623 78 27 0.9 0.9 0.00 0.01 0.01 79 1015.1
20260509160118 78 333 0.0 0.9 0.00 0.01 0.01 80 1015.3
20260509155615 78 153 0.9 0.9 0.00 0.01 0.01 80 1015.4
20260509155111 78 49 0.0 0.0 0.00 0.01 0.01 81 1015.4
20260509154607 77 34 0.0 0.0 0.00 0.01 0.01 82 1015.3
20260509154104 77 68 0.9 0.9 0.00 0.01 0.01 81 1015.2
20260509153601 77 70 0.0 0.0 0.00 0.01 0.01 83 1014.9
20260509153058 77 54 0.0 0.9 0.00 0.01 0.01 82 1015.1
20260509152554 77 63 0.0 0.0 0.00 0.01 0.01 82 1015.2
20260509152052 77 109 0.0 0.9 0.00 0.01 0.01 82 1015.3
20260509151547 77 48 0.0 0.0 0.00 0.01 0.01 82 1015.1
20260509151045 77 20 0.0 0.0 0.00 0.01 0.01 83 1014.9
20260509150543 77 87 0.0 0.0 0.00 0.01 0.01 82 1015.2
20260509150041 77 104 0.0 0.9 0.00 0.01 0.01 81 1015.2
20260509145536 77 212 0.9 0.9 0.00 0.01 0.01 82 1015.3
20260509145031 77 242 0.9 0.9 0.00 0.01 0.01 82 1015.5
20260509144529 77 207 0.0 0.9 0.00 0.01 0.01 82 1015.2
20260509144026 77 34 0.0 0.9 0.00 0.01 0.01 83 1015.4
20260509143523 76 91 0.9 0.9 0.00 0.01 0.01 83 1015.3
20260509143021 76 213 1.7 2.6 0.00 0.01 0.01 83 1015.1
20260509142516 76 189 2.6 2.6 0.00 0.01 0.01 82 1015.3
20260509142012 76 38 0.0 0.9 0.00 0.01 0.01 83 1015.5
20260509141509 76 42 0.9 0.9 0.00 0.01 0.01 84 1015.0
20260509141005 75 81 0.0 0.0 0.00 0.01 0.01 85 1014.9
20260509140502 76 236 0.9 1.7 0.00 0.01 0.01 84 1015.0
20260509140000 75 213 0.9 0.9 0.00 0.01 0.01 87 1015.0
20260509135457 74 173 0.9 0.9 0.00 0.01 0.01 85 1015.2
20260509134954 74 47 0.0 0.0 0.00 0.01 0.01 86 1015.0
20260509134451 73 157 0.0 0.9 0.00 0.01 0.01 87 1015.2
20260509133949 73 102 0.9 0.9 0.00 0.01 0.01 87 1015.1
20260509133445 73 207 0.9 0.9 0.00 0.01 0.01 87 1015.3
20260509132943 73 270 3.5 4.3 0.00 0.01 0.01 88 1015.3
20260509132441 73 174 0.9 1.7 0.00 0.01 0.01 88 1015.3
20260509131938 73 208 1.7 1.7 0.00 0.01 0.01 87 1015.2
20260509131435 73 330 0.0 0.0 0.00 0.01 0.01 88 1015.2
20260509130932 73 51 0.0 0.0 0.00 0.01 0.01 88 1014.9
20260509130427 72 93 0.0 0.0 0.00 0.01 0.01 88 1014.8
20260509125925 72 222 0.9 0.9 0.00 0.01 0.01 88 1014.8
20260509125421 72 252 0.9 0.9 0.00 0.01 0.01 88 1015.0
20260509124917 72 35 0.0 0.0 0.00 0.01 0.01 89 1014.7
20260509124414 71 111 0.0 0.9 0.00 0.01 0.01 90 1014.5
20260509123912 71 85 0.0 0.0 0.00 0.01 0.01 90 1014.6
20260509123409 71 218 0.9 1.7 0.00 0.01 0.01 90 1014.8